Location: Cudham
(51.3000°N, 0.0667°E)
Time: 06:19:32
(UTC+00:00)

Resurs 01 Rocket - Pass Details

Date: 19 May 2025
Orbit: 627 x 637 km, 97.7° (Epoch: 18 June)

Event Time Altitude Azimuth Distance (km) Brightness Sun altitude
Rises 20:49:28 0° 219° (SW) 2,916 4.9 -7.8°
Reaches altitude 10° 20:53:00 10° 250° (WSW) 2,013 4.5 -8.2°
Maximum altitude 20:54:48 12° 274° (W) 1,866 4.7 -8.4°
Drops below altitude 10° 20:56:37 10° 299° (WNW) 2,018 5.5 -8.6°
Sets 21:00:11 0° 329° (NNW) 2,931 7.1 -9.0°
